Time,TemperatureF,DewpointF,PressureIn,WindDirection,WindDirectionDegrees,WindSpeedMPH,WindSpeedGustMPH,Humidity,HourlyPrecipIn,Conditions,Clouds,dailyrainin,SoftwareType,DateUTC
2013-05-07 00:02:00,37.0,35.0,-100.00,North,-999,0.0,0.0,94,-99.99,,,-99.99,,2013-05-07 07:02:00,
2013-05-07 00:11:00,37.0,35.0,-100.00,North,-999,0.0,0.0,94,-99.99,,,-99.99,,2013-05-07 07:11:00,
2013-05-07 00:22:00,37.0,35.0,-100.00,SE,127,2.0,4.0,94,-99.99,,,-99.99,,2013-05-07 07:22:00,
2013-05-07 00:31:00,37.0,35.0,-100.00,SE,134,2.0,3.0,94,-99.99,,,-99.99,,2013-05-07 07:31:00,
2013-05-07 00:42:00,37.0,36.0,-100.00,ESE,112,2.0,3.0,95,-99.99,,,-99.99,,2013-05-07 07:42:00,
2013-05-07 00:52:00,37.0,35.0,-100.00,North,-999,0.0,0.0,94,-99.99,,,-99.99,,2013-05-07 07:52:00,
2013-05-07 01:02:00,37.0,36.0,-100.00,North,-999,0.0,0.0,95,-99.99,,,-99.99,,2013-05-07 08:02:00,
2013-05-07 01:11:00,37.0,36.0,-100.00,North,-999,0.0,0.0,95,-99.99,,,-99.99,,2013-05-07 08:11:00,
2013-05-07 01:21:00,37.0,36.0,-100.00,North,-999,0.0,0.0,95,-99.99,,,-99.99,,2013-05-07 08:21:00,
2013-05-07 01:31:00,37.0,36.0,-100.00,North,-999,0.0,0.0,95,-99.99,,,-99.99,,2013-05-07 08:31:00,
2013-05-07 01:41:00,37.0,36.0,-100.00,North,-999,0.0,0.0,95,-99.99,,,-99.99,,2013-05-07 08:41:00,
2013-05-07 01:52:00,37.0,36.0,-100.00,ESE,116,3.0,5.0,95,-99.99,,,-99.99,,2013-05-07 08:52:00,
2013-05-07 02:01:00,37.0,36.0,-100.00,ESE,114,3.0,5.0,95,-99.99,,,-99.99,,2013-05-07 09:01:00,
2013-05-07 02:11:00,37.0,36.0,-100.00,ESE,114,3.0,5.0,95,-99.99,,,-99.99,,2013-05-07 09:11:00,
2013-05-07 02:22:00,37.0,36.0,-100.00,North,-999,0.0,0.0,95,-99.99,,,-99.99,,2013-05-07 09:22:00,
2013-05-07 02:33:00,37.0,36.0,-100.00,North,-999,0.0,0.0,95,-99.99,,,-99.99,,2013-05-07 09:33:00,
2013-05-07 02:42:00,37.0,36.0,-100.00,North,-999,0.0,0.0,95,-99.99,,,-99.99,,2013-05-07 09:42:00,
2013-05-07 02:52:00,36.0,35.0,-100.00,North,-999,0.0,0.0,95,-99.99,,,-99.99,,2013-05-07 09:52:00,
2013-05-07 03:02:00,36.0,35.0,-100.00,North,-999,0.0,0.0,95,-99.99,,,-99.99,,2013-05-07 10:02:00,
2013-05-07 03:12:00,36.0,35.0,-100.00,North,-999,0.0,0.0,95,-99.99,,,-99.99,,2013-05-07 10:12:00,
2013-05-07 03:22:00,35.0,34.0,-100.00,North,-999,0.0,0.0,95,-99.99,,,-99.99,,2013-05-07 10:22:00,
2013-05-07 03:32:00,35.0,34.0,-100.00,North,-999,0.0,0.0,95,-99.99,,,-99.99,,2013-05-07 10:32:00,
2013-05-07 03:42:00,35.0,34.0,-100.00,North,-999,0.0,0.0,95,-99.99,,,-99.99,,2013-05-07 10:42:00,
2013-05-07 03:52:00,34.0,33.0,-100.00,ESE,102,0.0,1.0,95,-99.99,,,-99.99,,2013-05-07 10:52:00,
2013-05-07 04:02:00,35.0,34.0,-100.00,ESE,110,3.0,4.0,95,-99.99,,,-99.99,,2013-05-07 11:02:00,
2013-05-07 04:11:00,35.0,34.0,-100.00,ESE,110,3.0,4.0,95,-99.99,,,-99.99,,2013-05-07 11:11:00,
2013-05-07 04:21:00,35.0,34.0,-100.00,East,90,1.0,2.0,95,-99.99,,,-99.99,,2013-05-07 11:21:00,
2013-05-07 04:32:00,35.0,34.0,-100.00,ESE,107,1.0,3.0,95,-99.99,,,-99.99,,2013-05-07 11:32:00,
2013-05-07 04:42:00,35.0,34.0,-100.00,ESE,107,2.0,3.0,95,-99.99,,,-99.99,,2013-05-07 11:42:00,
2013-05-07 04:51:00,35.0,34.0,-100.00,ESE,103,2.0,4.0,95,-99.99,,,-99.99,,2013-05-07 11:51:00,
2013-05-07 05:01:00,35.0,34.0,-100.00,East,85,3.0,5.0,95,-99.99,,,-99.99,,2013-05-07 12:01:00,
2013-05-07 05:11:00,35.0,34.0,-100.00,East,85,3.0,5.0,95,-99.99,,,-99.99,,2013-05-07 12:11:00,
2013-05-07 05:21:00,35.0,34.0,-100.00,ESE,123,2.0,3.0,95,-99.99,,,-99.99,,2013-05-07 12:21:00,
2013-05-07 05:32:00,36.0,35.0,-100.00,East,100,0.0,1.0,95,-99.99,,,-99.99,,2013-05-07 12:32:00,
2013-05-07 05:42:00,36.0,35.0,-100.00,North,-999,0.0,0.0,95,-99.99,,,-99.99,,2013-05-07 12:42:00,
2013-05-07 05:52:00,35.0,34.0,-100.00,North,-999,0.0,0.0,95,-99.99,,,-99.99,,2013-05-07 12:52:00,
2013-05-07 06:01:00,36.0,35.0,-100.00,North,-999,0.0,0.0,95,-99.99,,,-99.99,,2013-05-07 13:01:00,
2013-05-07 06:11:00,35.0,34.0,-100.00,ENE,69,1.0,3.0,95,-99.99,,,-99.99,,2013-05-07 13:11:00,
2013-05-07 06:21:00,35.0,34.0,-100.00,East,83,0.0,0.0,95,-99.99,,,-99.99,,2013-05-07 13:21:00,
2013-05-07 06:32:00,35.0,34.0,-100.00,North,-999,0.0,0.0,95,-99.99,,,-99.99,,2013-05-07 13:32:00,
2013-05-07 06:42:00,35.0,34.0,-100.00,North,-999,0.0,0.0,95,-99.99,,,-99.99,,2013-05-07 13:42:00,
2013-05-07 06:52:00,35.0,34.0,-100.00,North,-999,0.0,0.0,95,-99.99,,,-99.99,,2013-05-07 13:52:00,
2013-05-07 07:02:00,35.0,34.0,-100.00,North,-999,0.0,0.0,95,-99.99,,,-99.99,,2013-05-07 14:02:00,
2013-05-07 07:11:00,35.0,34.0,-100.00,NE,51,2.0,4.0,95,-99.99,,,-99.99,,2013-05-07 14:11:00,
2013-05-07 07:21:00,35.0,34.0,-100.00,ENE,75,2.0,3.0,95,-99.99,,,-99.99,,2013-05-07 14:21:00,
2013-05-07 07:31:00,35.0,34.0,-100.00,NE,47,2.0,4.0,95,-99.99,,,-99.99,,2013-05-07 14:31:00,
2013-05-07 07:42:00,35.0,34.0,-100.00,East,90,2.0,3.0,95,-99.99,,,-99.99,,2013-05-07 14:42:00,
2013-05-07 07:52:00,35.0,34.0,-100.00,ESE,116,0.0,0.0,95,-99.99,,,-99.99,,2013-05-07 14:52:00,
2013-05-07 08:01:00,34.0,33.0,-100.00,East,82,2.0,4.0,95,-99.99,,,-99.99,,2013-05-07 15:01:00,
2013-05-07 08:12:00,35.0,34.0,-100.00,North,-999,0.0,0.0,95,-99.99,,,-99.99,,2013-05-07 15:12:00,
2013-05-07 08:20:00,35.0,34.0,-100.00,North,-999,0.0,0.0,95,-99.99,,,-99.99,,2013-05-07 15:20:00,
2013-05-07 08:21:00,35.0,34.0,-100.00,ENE,71,1.0,3.0,95,-99.99,,,-99.99,,2013-05-07 15:21:00,
2013-05-07 08:33:00,35.0,34.0,-100.00,North,-999,0.0,0.0,95,-99.99,,,-99.99,,2013-05-07 15:33:00,
2013-05-07 08:42:00,35.0,34.0,-100.00,North,-999,0.0,0.0,95,-99.99,,,-99.99,,2013-05-07 15:42:00,
2013-05-07 08:52:00,35.0,34.0,-100.00,North,-999,0.0,0.0,95,-99.99,,,-99.99,,2013-05-07 15:52:00,
2013-05-07 09:03:00,35.0,34.0,-100.00,North,-999,0.0,0.0,95,-99.99,,,-99.99,,2013-05-07 16:03:00,
2013-05-07 09:12:00,35.0,34.0,-100.00,North,-999,0.0,0.0,95,-99.99,,,-99.99,,2013-05-07 16:12:00,
2013-05-07 09:42:00,36.0,35.0,-100.00,North,-999,0.0,0.0,95,-99.99,,,-99.99,,2013-05-07 16:42:00,
2013-05-07 09:52:00,36.0,35.0,-100.00,North,-999,0.0,0.0,95,-99.99,,,-99.99,,2013-05-07 16:52:00,
2013-05-07 10:01:00,36.0,35.0,-100.00,North,-999,0.0,0.0,95,-99.99,,,-99.99,,2013-05-07 17:01:00,
2013-05-07 10:12:00,36.0,35.0,-100.00,North,-999,0.0,0.0,95,-99.99,,,-99.99,,2013-05-07 17:12:00,
2013-05-07 11:01:00,37.0,35.0,-100.00,SW,232,1.0,3.0,94,-99.99,,,-99.99,,2013-05-07 18:01:00,
2013-05-07 11:11:00,37.0,35.0,-100.00,SW,232,1.0,3.0,94,-99.99,,,-99.99,,2013-05-07 18:11:00,
2013-05-07 11:21:00,38.0,37.0,-100.00,WSW,254,1.0,3.0,95,-99.99,,,-99.99,,2013-05-07 18:21:00,
2013-05-07 11:31:00,38.0,36.0,-100.00,WSW,243,3.0,5.0,94,-99.99,,,-99.99,,2013-05-07 18:31:00,
2013-05-07 11:41:00,38.0,36.0,-100.00,WSW,239,3.0,5.0,94,-99.99,,,-99.99,,2013-05-07 18:41:00,
2013-05-07 11:51:00,38.0,36.0,-100.00,SW,233,4.0,6.0,93,-99.99,,,-99.99,,2013-05-07 18:51:00,
2013-05-07 12:02:00,39.0,37.0,-100.00,WSW,237,2.0,5.0,93,-99.99,,,-99.99,,2013-05-07 19:02:00,
2013-05-07 12:11:00,39.0,37.0,-100.00,West,271,0.0,2.0,91,-99.99,,,-99.99,,2013-05-07 19:11:00,
2013-05-07 12:21:00,39.0,36.0,-100.00,North,-999,0.0,0.0,89,-99.99,,,-99.99,,2013-05-07 19:21:00,
2013-05-07 12:31:00,39.0,36.0,-100.00,North,-999,0.0,0.0,89,-99.99,,,-99.99,,2013-05-07 19:31:00,
2013-05-07 12:41:00,40.0,36.0,-100.00,West,281,0.0,2.0,86,-99.99,,,-99.99,,2013-05-07 19:41:00,
2013-05-07 12:52:00,40.0,36.0,-100.00,North,-999,0.0,0.0,85,-99.99,,,-99.99,,2013-05-07 19:52:00,
2013-05-07 13:02:00,41.0,37.0,-100.00,North,-999,0.0,0.0,86,-99.99,,,-99.99,,2013-05-07 20:02:00,
2013-05-07 13:11:00,41.0,36.0,-100.00,North,-999,0.0,0.0,83,-99.99,,,-99.99,,2013-05-07 20:11:00,
2013-05-07 13:21:00,42.0,37.0,-100.00,North,-999,0.0,0.0,83,-99.99,,,-99.99,,2013-05-07 20:21:00,
2013-05-07 13:32:00,41.0,36.0,-100.00,North,-999,0.0,0.0,81,-99.99,,,-99.99,,2013-05-07 20:32:00,
2013-05-07 13:41:00,42.0,36.0,-100.00,North,-999,0.0,0.0,79,-99.99,,,-99.99,,2013-05-07 20:41:00,
2013-05-07 13:51:00,42.0,35.0,-100.00,North,-999,0.0,0.0,75,-99.99,,,-99.99,,2013-05-07 20:51:00,
2013-05-07 14:01:00,42.0,35.0,-100.00,NW,323,2.0,3.0,76,-99.99,,,-99.99,,2013-05-07 21:01:00,
2013-05-07 14:11:00,43.0,36.0,-100.00,NW,316,1.0,3.0,77,-99.99,,,-99.99,,2013-05-07 21:11:00,
2013-05-07 14:21:00,43.0,35.0,-100.00,SW,229,1.0,3.0,73,-99.99,,,-99.99,,2013-05-07 21:21:00,
2013-05-07 14:32:00,44.0,35.0,-100.00,SSW,199,3.0,5.0,71,-99.99,,,-99.99,,2013-05-07 21:32:00,
2013-05-07 14:42:00,43.0,36.0,-100.00,SW,236,1.0,3.0,75,-99.99,,,-99.99,,2013-05-07 21:42:00,
2013-05-07 14:52:00,44.0,37.0,-100.00,West,281,0.0,3.0,75,-99.99,,,-99.99,,2013-05-07 21:52:00,
2013-05-07 15:02:00,44.0,36.0,-100.00,SSW,199,2.0,5.0,73,-99.99,,,-99.99,,2013-05-07 22:02:00,
2013-05-07 15:13:00,44.0,37.0,-100.00,NW,308,3.0,5.0,75,-99.99,,,-99.99,,2013-05-07 22:13:00,
2013-05-07 15:22:00,45.0,37.0,-100.00,WNW,301,2.0,5.0,73,-99.99,,,-99.99,,2013-05-07 22:22:00,
2013-05-07 15:32:00,45.0,37.0,-100.00,West,268,3.0,5.0,73,-99.99,,,-99.99,,2013-05-07 22:32:00,
2013-05-07 15:42:00,44.0,37.0,-100.00,West,272,2.0,4.0,77,-99.99,,,-99.99,,2013-05-07 22:42:00,
2013-05-07 15:52:00,44.0,38.0,-100.00,WNW,299,3.0,4.0,78,-99.99,,,-99.99,,2013-05-07 22:52:00,
2013-05-07 16:01:00,43.0,37.0,-100.00,NW,319,1.0,2.0,79,-99.99,,,-99.99,,2013-05-07 23:01:00,
2013-05-07 16:11:00,42.0,37.0,-100.00,North,-999,0.0,0.0,83,-99.99,,,-99.99,,2013-05-07 23:11:00,
2013-05-07 16:21:00,42.0,38.0,-100.00,ESE,120,1.0,3.0,84,-99.99,,,-99.99,,2013-05-07 23:21:00,
2013-05-07 16:32:00,42.0,38.0,-100.00,ESE,103,3.0,4.0,85,-99.99,,,-99.99,,2013-05-07 23:32:00,
2013-05-07 16:41:00,42.0,38.0,-100.00,ESE,103,3.0,4.0,85,-99.99,,,-99.99,,2013-05-07 23:41:00,
2013-05-07 16:52:00,42.0,38.0,-100.00,NE,38,1.0,3.0,85,-99.99,,,-99.99,,2013-05-07 23:52:00,
2013-05-07 17:01:00,42.0,38.0,-100.00,North,-999,0.0,0.0,87,-99.99,,,-99.99,,2013-05-08 00:01:00,
2013-05-07 17:11:00,42.0,38.0,-100.00,North,-999,0.0,0.0,87,-99.99,,,-99.99,,2013-05-08 00:11:00,
2013-05-07 17:21:00,42.0,38.0,-100.00,North,-999,0.0,0.0,84,-99.99,,,-99.99,,2013-05-08 00:21:00,
2013-05-07 17:32:00,42.0,38.0,-100.00,North,-999,0.0,0.0,85,-99.99,,,-99.99,,2013-05-08 00:32:00,
2013-05-07 17:42:00,42.0,38.0,-100.00,North,-999,0.0,0.0,85,-99.99,,,-99.99,,2013-05-08 00:42:00,
2013-05-07 17:51:00,43.0,39.0,-100.00,West,272,3.0,5.0,85,-99.99,,,-99.99,,2013-05-08 00:51:00,
2013-05-07 18:02:00,43.0,39.0,-100.00,West,270,3.0,4.0,87,-99.99,,,-99.99,,2013-05-08 01:02:00,
2013-05-07 18:11:00,43.0,39.0,-100.00,West,270,3.0,4.0,87,-99.99,,,-99.99,,2013-05-08 01:11:00,
2013-05-07 18:21:00,42.0,39.0,-100.00,West,277,1.0,3.0,89,-99.99,,,-99.99,,2013-05-08 01:21:00,
2013-05-07 18:31:00,42.0,39.0,-100.00,West,277,1.0,3.0,89,-99.99,,,-99.99,,2013-05-08 01:31:00,
2013-05-07 18:42:00,42.0,39.0,-100.00,West,270,2.0,4.0,88,-99.99,,,-99.99,,2013-05-08 01:42:00,
2013-05-07 18:52:00,42.0,38.0,-100.00,WNW,284,4.0,5.0,86,-99.99,,,-99.99,,2013-05-08 01:52:00,
2013-05-07 19:01:00,42.0,38.0,-100.00,West,271,3.0,4.0,86,-99.99,,,-99.99,,2013-05-08 02:01:00,
2013-05-07 19:12:00,42.0,38.0,-100.00,West,271,3.0,4.0,86,-99.99,,,-99.99,,2013-05-08 02:12:00,
2013-05-07 19:22:00,42.0,38.0,-100.00,West,278,3.0,5.0,85,-99.99,,,-99.99,,2013-05-08 02:22:00,
2013-05-07 19:31:00,42.0,38.0,-100.00,West,278,3.0,5.0,85,-99.99,,,-99.99,,2013-05-08 02:31:00,
2013-05-07 19:42:00,42.0,38.0,-100.00,West,270,2.0,4.0,85,-99.99,,,-99.99,,2013-05-08 02:42:00,
2013-05-07 19:52:00,42.0,38.0,-100.00,West,281,3.0,4.0,86,-99.99,,,-99.99,,2013-05-08 02:52:00,
2013-05-07 20:01:00,42.0,38.0,-100.00,West,271,2.0,4.0,86,-99.99,,,-99.99,,2013-05-08 03:01:00,
2013-05-07 20:11:00,42.0,38.0,-100.00,West,277,2.0,3.0,86,-99.99,,,-99.99,,2013-05-08 03:11:00,
2013-05-07 20:21:00,42.0,38.0,-100.00,West,277,2.0,3.0,86,-99.99,,,-99.99,,2013-05-08 03:21:00,
2013-05-07 20:32:00,42.0,38.0,-100.00,West,277,2.0,3.0,86,-99.99,,,-99.99,,2013-05-08 03:32:00,
2013-05-07 20:43:00,42.0,38.0,-100.00,West,277,2.0,3.0,86,-99.99,,,-99.99,,2013-05-08 03:43:00,
2013-05-07 20:52:00,41.0,38.0,-100.00,West,268,2.0,3.0,89,-99.99,,,-99.99,,2013-05-08 03:52:00,
2013-05-07 21:02:00,41.0,38.0,-100.00,West,265,2.0,4.0,90,-99.99,,,-99.99,,2013-05-08 04:02:00,
2013-05-07 21:12:00,41.0,39.0,-100.00,West,264,2.0,5.0,91,-99.99,,,-99.99,,2013-05-08 04:12:00,
2013-05-07 21:22:00,41.0,39.0,-100.00,West,271,3.0,4.0,92,-99.99,,,-99.99,,2013-05-08 04:22:00,
2013-05-07 21:33:00,41.0,39.0,-100.00,West,274,2.0,3.0,92,-99.99,,,-99.99,,2013-05-08 04:33:00,
2013-05-07 21:42:00,41.0,39.0,-100.00,West,268,0.0,2.0,92,-99.99,,,-99.99,,2013-05-08 04:42:00,
2013-05-07 21:52:00,41.0,39.0,-100.00,North,-999,0.0,0.0,91,-99.99,,,-99.99,,2013-05-08 04:52:00,
2013-05-07 22:02:00,41.0,39.0,-100.00,West,277,1.0,3.0,91,-99.99,,,-99.99,,2013-05-08 05:02:00,
2013-05-07 22:12:00,41.0,39.0,-100.00,West,268,1.0,3.0,91,-99.99,,,-99.99,,2013-05-08 05:12:00,
2013-05-07 22:22:00,41.0,39.0,-100.00,North,-999,0.0,0.0,91,-99.99,,,-99.99,,2013-05-08 05:22:00,
2013-05-07 22:32:00,41.0,39.0,-100.00,North,-999,0.0,0.0,91,-99.99,,,-99.99,,2013-05-08 05:32:00,
2013-05-07 22:42:00,41.0,39.0,-100.00,North,-999,0.0,0.0,91,-99.99,,,-99.99,,2013-05-08 05:42:00,
2013-05-07 22:52:00,41.0,39.0,-100.00,North,-999,0.0,0.0,91,-99.99,,,-99.99,,2013-05-08 05:52:00,
2013-05-07 23:01:00,41.0,39.0,-100.00,West,281,1.0,3.0,92,-99.99,,,-99.99,,2013-05-08 06:01:00,
2013-05-07 23:11:00,41.0,39.0,-100.00,North,-999,0.0,0.0,92,-99.99,,,-99.99,,2013-05-08 06:11:00,
2013-05-07 23:21:00,41.0,39.0,-100.00,North,-999,0.0,0.0,92,-99.99,,,-99.99,,2013-05-08 06:21:00,
2013-05-07 23:32:00,41.0,39.0,-100.00,ESE,117,0.0,3.0,92,-99.99,,,-99.99,,2013-05-08 06:32:00,
2013-05-07 23:41:00,41.0,39.0,-100.00,North,-999,0.0,0.0,93,-99.99,,,-99.99,,2013-05-08 06:41:00,
2013-05-07 23:51:00,40.0,38.0,-100.00,North,-999,0.0,0.0,93,-99.99,,,-99.99,,2013-05-08 06:51:00,